Dati Storici

Data ora Umidita' aria (%) Temperatura aria (°C) Rad globale (W/m²) Gonioanemometro (°) Tacoanemometro (m/s) Pioggia (mm)
16-06-2020 00:50 97.7 % 18.182 -0.175 -0.01 0 0
16-06-2020 00:40 97.7 % 18.215 240.946 0.642 0 0
16-06-2020 00:30 97.7 % 18.2 324.479 -0.009 0 0
16-06-2020 00:20 97.7 % 18.138 338.332 -0.012 0 0
16-06-2020 00:10 97.7 % 18.061 357.273 -0.012 0 0
16-06-2020 00:00 97.7 % 18.044 104.897 -0.013 0 0
15-06-2020 23:50 97.7 % 18.038 77 -0.012 0 0
15-06-2020 23:40 97.7 % 18.039 313.151 0.252 0 0
15-06-2020 23:30 97.7 % 18.043 52.148 -0.009 0 0
15-06-2020 23:20 97.7 % 18.091 256.748 0.45 0 0
15-06-2020 23:10 97.7 % 18.062 284.974 1.709 0 0
15-06-2020 23:00 97.7 % 18.086 292.913 2.132 0 0
15-06-2020 22:50 97.7 % 17.971 181.701 0.001 0 0
15-06-2020 22:40 97.7 % 17.863 209.024 1.21 0 0
15-06-2020 22:30 97.7 % 17.875 299.111 1.302 0 0
15-06-2020 22:20 97.8 % 17.872 196.828 2.462 0 0
15-06-2020 22:10 97.7 % 17.977 195.421 1.902 0 0
15-06-2020 22:00 97.7 % 18.018 267.355 0.984 0 0
15-06-2020 21:50 97.7 % 18.047 296.319 0.637 0 0
15-06-2020 21:40 97.7 % 18.026 297.621 0.606 0 0

I dati sono presentati in modo automatico a scopo informativo. In seguito a verifica i dati possono subire modifiche o essere invalidati e non riportati negli archivi definitivi.